カタログに戻る

CZ-6A DEB

運用中SSO
NORAD 54468·DEBRIS·🇨🇳 China

打ち上げ Nov 11, 2022 から Taiyuan Satellite Launch Center

Loading…

次のパス (今後24時間)

TLE

最新Source: Space-Track

元期: Sep 14, 2026, 00:38 UTC

1 54468U 22151GU  26257.02671742  .00000547  00000-0  26434-3 0  9997
2 54468  98.7522 269.4708 0053817  90.4296 270.3048 14.21811469198731

AllMySatでCZ-6A DEBをリアルタイム追跡

Download on the App Store